| time (UTC) | temp F | wind direction | speed MPH | gust MPH | rain 1hr in | rain 24hr in | rain mn in | humidity % | barometer mb |
| 20260503231804 | 50 | 151 | 3.0 | 8.0 | 0.00 | 0.00 | 0.00 | 58 | 1019.0 |
| 20260503231304 | 50 | 132 | 5.0 | 9.0 | 0.00 | 0.00 | 0.00 | 58 | 1018.9 |
| 20260503230804 | 50 | 156 | 4.0 | 8.0 | 0.00 | 0.00 | 0.00 | 58 | 1019.0 |
| 20260503230304 | 50 | 86 | 5.0 | 7.0 | 0.00 | 0.00 | 0.00 | 59 | 1018.9 |
| 20260503225804 | 50 | 106 | 2.0 | 8.0 | 0.00 | 0.00 | 0.00 | 59 | 1019.0 |
| 20260503225305 | 50 | 5 | 2.0 | 3.0 | 0.00 | 0.00 | 0.00 | 59 | 1019.1 |
| 20260503224804 | 50 | 90 | 2.0 | 5.0 | 0.00 | 0.00 | 0.00 | 59 | 1019.1 |
| 20260503224304 | 50 | 164 | 2.0 | 5.0 | 0.00 | 0.00 | 0.00 | 60 | 1019.1 |
| 20260503223803 | 49 | 132 | 1.0 | 7.0 | 0.00 | 0.00 | 0.00 | 60 | 1019.0 |
| 20260503223304 | 49 | 278 | 0.0 | 3.0 | 0.00 | 0.00 | 0.00 | 60 | 1019.2 |
| 20260503222803 | 49 | 336 | 1.0 | 3.0 | 0.00 | 0.00 | 0.00 | 61 | 1019.2 |
| 20260503222304 | 50 | 4 | 1.0 | 3.0 | 0.00 | 0.00 | 0.00 | 61 | 1019.1 |
| 20260503221804 | 50 | 43 | 5.0 | 8.0 | 0.00 | 0.00 | 0.00 | 61 | 1019.1 |
| 20260503221304 | 49 | 32 | 1.0 | 5.0 | 0.00 | 0.00 | 0.00 | 62 | 1019.2 |
| 20260503220804 | 49 | 291 | 2.0 | 5.0 | 0.00 | 0.00 | 0.00 | 62 | 1019.4 |
| 20260503220304 | 49 | 353 | 1.0 | 5.0 | 0.00 | 0.00 | 0.00 | 62 | 1019.6 |
| 20260503215804 | 49 | 347 | 3.0 | 6.0 | 0.00 | 0.00 | 0.00 | 62 | 1019.5 |
| 20260503215305 | 49 | 2 | 1.0 | 3.0 | 0.00 | 0.00 | 0.00 | 61 | 1019.6 |
| 20260503214804 | 49 | 18 | 3.0 | 7.0 | 0.00 | 0.00 | 0.00 | 60 | 1019.6 |
| 20260503214304 | 50 | 23 | 6.0 | 10.0 | 0.00 | 0.00 | 0.00 | 58 | 1019.6 |
| 20260503213804 | 50 | 18 | 4.0 | 8.0 | 0.00 | 0.00 | 0.00 | 58 | 1019.5 |
| 20260503213304 | 51 | 340 | 6.0 | 9.0 | 0.00 | 0.00 | 0.00 | 57 | 1019.4 |
| 20260503212804 | 51 | 337 | 4.0 | 8.0 | 0.00 | 0.00 | 0.00 | 55 | 1019.4 |
| 20260503212305 | 51 | 313 | 2.0 | 6.0 | 0.00 | 0.00 | 0.00 | 55 | 1019.4 |
| 20260503211804 | 51 | 344 | 1.0 | 6.0 | 0.00 | 0.00 | 0.00 | 54 | 1019.4 |
| 20260503211304 | 51 | 298 | 2.0 | 6.0 | 0.00 | 0.00 | 0.00 | 55 | 1019.5 |
| 20260503210804 | 51 | 314 | 4.0 | 8.0 | 0.00 | 0.00 | 0.00 | 56 | 1019.5 |
| 20260503210304 | 51 | 313 | 4.0 | 8.0 | 0.00 | 0.00 | 0.00 | 56 | 1019.4 |
| 20260503205804 | 51 | 278 | 2.0 | 6.0 | 0.00 | 0.00 | 0.00 | 54 | 1019.5 |
| 20260503205304 | 51 | 259 | 2.0 | 7.0 | 0.00 | 0.00 | 0.00 | 56 | 1019.5 |
| 20260503204304 | 51 | 294 | 3.0 | 5.0 | 0.00 | 0.00 | 0.00 | 56 | 1019.6 |
| 20260503203804 | 51 | 27 | 0.0 | 1.0 | 0.00 | 0.00 | 0.00 | 56 | 1019.7 |
| 20260503203304 | 51 | 357 | 3.0 | 6.0 | 0.00 | 0.00 | 0.00 | 56 | 1019.7 |
| 20260503202804 | 51 | 279 | 1.0 | 5.0 | 0.00 | 0.00 | 0.00 | 55 | 1019.6 |
| 20260503202304 | 51 | 337 | 1.0 | 5.0 | 0.00 | 0.00 | 0.00 | 56 | 1019.6 |
| 20260503201804 | 50 | 191 | 1.0 | 2.0 | 0.00 | 0.00 | 0.00 | 56 | 1019.6 |
| 20260503201304 | 50 | 217 | 1.0 | 3.0 | 0.00 | 0.00 | 0.00 | 57 | 1019.6 |
| 20260503200804 | 50 | 281 | 2.0 | 5.0 | 0.00 | 0.00 | 0.00 | 57 | 1019.7 |
| 20260503200304 | 50 | 295 | 1.0 | 2.0 | 0.00 | 0.00 | 0.00 | 57 | 1019.6 |
| 20260503195804 | 50 | 268 | 2.0 | 3.0 | 0.00 | 0.00 | 0.00 | 57 | 1019.6 |
| 20260503195305 | 49 | 12 | 1.0 | 2.0 | 0.00 | 0.00 | 0.00 | 58 | 1019.6 |
| 20260503194804 | 49 | 322 | 0.0 | 2.0 | 0.00 | 0.00 | 0.00 | 58 | 1019.6 |
| 20260503194304 | 49 | 341 | 3.0 | 3.0 | 0.00 | 0.00 | 0.00 | 59 | 1019.7 |
| 20260503193804 | 49 | 256 | 2.0 | 6.0 | 0.00 | 0.00 | 0.00 | 59 | 1019.7 |
| 20260503193304 | 49 | 187 | 2.0 | 6.0 | 0.00 | 0.00 | 0.00 | 59 | 1019.7 |
| 20260503192804 | 49 | 244 | 1.0 | 3.0 | 0.00 | 0.00 | 0.00 | 58 | 1019.7 |
| 20260503192305 | 49 | 168 | 1.0 | 3.0 | 0.00 | 0.00 | 0.00 | 60 | 1019.8 |
| 20260503191804 | 49 | 219 | 1.0 | 3.0 | 0.00 | 0.00 | 0.00 | 60 | 1019.7 |
| 20260503191304 | 48 | 197 | 2.0 | 3.0 | 0.00 | 0.00 | 0.00 | 60 | 1019.8 |
| 20260503190803 | 48 | 302 | 0.0 | 0.0 | 0.00 | 0.00 | 0.00 | 60 | 1019.9 |
| 20260503190304 | 48 | 302 | 0.0 | 2.0 | 0.00 | 0.00 | 0.00 | 60 | 1019.8 |
| 20260503185804 | 48 | 337 | 0.0 | 0.0 | 0.00 | 0.00 | 0.00 | 61 | 1019.8 |
| 20260503185305 | 48 | 337 | 0.0 | 0.0 | 0.00 | 0.00 | 0.00 | 61 | 1019.9 |
| 20260503184804 | 48 | 337 | 0.0 | 0.0 | 0.00 | 0.00 | 0.00 | 62 | 1019.9 |
| 20260503184304 | 47 | 337 | 0.0 | 1.0 | 0.00 | 0.00 | 0.00 | 62 | 1019.9 |
| 20260503173804 | 45 | 11 | 0.0 | 1.0 | 0.00 | 0.00 | 0.00 | 67 | 1019.7 |
| 20260503173304 | 45 | 96 | 0.0 | 1.0 | 0.00 | 0.00 | 0.00 | 67 | 1019.8 |
| 20260503172804 | 44 | 125 | 0.0 | 1.0 | 0.00 | 0.00 | 0.00 | 68 | 1019.8 |
| 20260503172305 | 44 | 176 | 0.0 | 1.0 | 0.00 | 0.00 | 0.00 | 68 | 1019.9 |
| 20260503171804 | 44 | 201 | 2.0 | 2.0 | 0.00 | 0.00 | 0.00 | 68 | 1020.0 |
| 20260503171305 | 44 | 236 | 0.0 | 1.0 | 0.00 | 0.00 | 0.00 | 68 | 1020.0 |
| 20260503170804 | 44 | 241 | 1.0 | 1.0 | 0.00 | 0.00 | 0.00 | 69 | 1019.9 |
| 20260503170304 | 44 | 328 | 0.0 | 1.0 | 0.00 | 0.00 | 0.00 | 69 | 1019.9 |
| 20260503150804 | 41 | 201 | 1.0 | 2.0 | 0.00 | 0.00 | 0.00 | 70 | 1019.8 |
| 20260503150303 | 41 | 181 | 1.0 | 1.0 | 0.00 | 0.00 | 0.00 | 70 | 1019.8 |
| 20260503140304 | 41 | 327 | 3.0 | 5.0 | 0.00 | 0.00 | 0.00 | 70 | 1020.1 |
| 20260503131305 | 42 | 253 | 0.0 | 1.0 | 0.00 | 0.00 | 0.00 | 67 | 1019.9 |
| 20260503130804 | 42 | 320 | 2.0 | 3.0 | 0.00 | 0.00 | 0.00 | 67 | 1019.9 |
| 20260503130304 | 42 | 323 | 0.0 | 0.0 | 0.00 | 0.00 | 0.00 | 66 | 1019.9 |
| 20260503110804 | 44 | 237 | 0.0 | 2.0 | 0.00 | 0.00 | 0.00 | 60 | 1020.3 |
| 20260503110303 | 45 | 272 | 1.0 | 5.0 | 0.00 | 0.00 | 0.00 | 60 | 1020.4 |
| 20260503090304 | 47 | 164 | 8.0 | 13.0 | 0.00 | 0.00 | 0.00 | 54 | 1019.9 |
| 20260503080803 | 47 | 147 | 9.0 | 15.0 | 0.00 | 0.00 | 0.00 | 54 | 1019.9 |
| 20260503080304 | 47 | 170 | 6.0 | 13.0 | 0.00 | 0.00 | 0.00 | 54 | 1019.8 |
| 20260503072804 | 46 | 192 | 6.0 | 12.0 | 0.00 | 0.00 | 0.00 | 58 | 1019.5 |
| 20260503072305 | 46 | 178 | 2.0 | 7.0 | 0.00 | 0.00 | 0.00 | 59 | 1019.4 |
| 20260503071804 | 46 | 132 | 2.0 | 6.0 | 0.00 | 0.00 | 0.00 | 59 | 1019.6 |
| 20260503071304 | 47 | 152 | 6.0 | 12.0 | 0.00 | 0.00 | 0.00 | 58 | 1019.5 |
| 20260503070804 | 47 | 59 | 2.0 | 6.0 | 0.00 | 0.00 | 0.00 | 56 | 1019.6 |
| 20260503070304 | 47 | 171 | 7.0 | 14.0 | 0.00 | 0.00 | 0.00 | 54 | 1019.4 |
| 20260503060304 | 47 | 115 | 4.0 | 14.0 | 0.00 | 0.00 | 0.00 | 58 | 1018.9 |
| 20260503054804 | 46 | 147 | 3.0 | 12.0 | 0.00 | 0.00 | 0.00 | 64 | 1018.8 |
| 20260503054303 | 46 | 8 | 2.0 | 8.0 | 0.00 | 0.00 | 0.00 | 68 | 1018.9 |
| 20260503053804 | 46 | 158 | 0.0 | 1.0 | 0.00 | 0.00 | 0.00 | 67 | 1018.8 |
| 20260503053304 | 46 | 226 | 1.0 | 5.0 | 0.00 | 0.00 | 0.00 | 67 | 1018.8 |
| 20260503052804 | 46 | 73 | 0.0 | 0.0 | 0.00 | 0.00 | 0.00 | 66 | 1018.7 |
| 20260503052305 | 46 | 34 | 2.0 | 3.0 | 0.00 | 0.00 | 0.00 | 66 | 1018.7 |
| 20260503051804 | 46 | 141 | 0.0 | 3.0 | 0.00 | 0.00 | 0.00 | 66 | 1018.6 |
| 20260503051304 | 46 | 216 | 3.0 | 8.0 | 0.00 | 0.00 | 0.00 | 66 | 1018.7 |
| 20260503050804 | 46 | 226 | 3.0 | 7.0 | 0.00 | 0.00 | 0.00 | 68 | 1018.7 |
| 20260503045804 | 46 | 282 | 3.0 | 7.0 | 0.00 | 0.00 | 0.00 | 68 | 1018.7 |
| 20260503045305 | 46 | 192 | 3.0 | 5.0 | 0.00 | 0.00 | 0.00 | 68 | 1018.5 |
| 20260503044804 | 46 | 337 | 2.0 | 7.0 | 0.00 | 0.00 | 0.00 | 68 | 1018.6 |
| 20260503044304 | 46 | 283 | 3.0 | 9.0 | 0.00 | 0.00 | 0.00 | 69 | 1018.3 |
| 20260503043804 | 46 | 302 | 2.0 | 5.0 | 0.00 | 0.00 | 0.00 | 69 | 1018.3 |
| 20260503043304 | 46 | 336 | 5.0 | 8.0 | 0.00 | 0.00 | 0.00 | 69 | 1018.3 |
| 20260503042804 | 46 | 318 | 3.0 | 5.0 | 0.00 | 0.00 | 0.00 | 68 | 1018.2 |
| 20260503042305 | 46 | 331 | 5.0 | 6.0 | 0.00 | 0.00 | 0.00 | 68 | 1018.3 |
| 20260503041804 | 47 | 320 | 5.0 | 9.0 | 0.00 | 0.00 | 0.00 | 68 | 1018.1 |
| 20260503041304 | 47 | 317 | 3.0 | 7.0 | 0.00 | 0.00 | 0.00 | 68 | 1018.2 |
| 20260503040804 | 47 | 334 | 3.0 | 7.0 | 0.00 | 0.00 | 0.00 | 68 | 1018.1 |
| 20260503040304 | 47 | 303 | 2.0 | 6.0 | 0.00 | 0.00 | 0.00 | 68 | 1018.2 |
| 20260503035804 | 47 | 328 | 2.0 | 7.0 | 0.00 | 0.00 | 0.00 | 68 | 1018.1 |
| 20260503025305 | 49 | 330 | 3.0 | 6.0 | 0.00 | 0.00 | 0.00 | 66 | 1017.9 |
| 20260503024804 | 49 | 328 | 4.0 | 8.0 | 0.00 | 0.00 | 0.00 | 66 | 1017.8 |
| 20260503024303 | 49 | 325 | 3.0 | 6.0 | 0.00 | 0.00 | 0.00 | 66 | 1017.8 |
| 20260503023804 | 49 | 327 | 3.0 | 7.0 | 0.00 | 0.00 | 0.00 | 66 | 1017.7 |
| 20260503023304 | 48 | 354 | 3.0 | 6.0 | 0.00 | 0.00 | 0.00 | 67 | 1017.7 |
| 20260503022804 | 48 | 342 | 5.0 | 7.0 | 0.00 | 0.00 | 0.00 | 66 | 1017.8 |
| 20260503022305 | 48 | 310 | 2.0 | 3.0 | 0.00 | 0.00 | 0.00 | 67 | 1018.0 |
| 20260503021804 | 48 | 337 | 4.0 | 7.0 | 0.00 | 0.00 | 0.00 | 67 | 1018.1 |
| 20260503021304 | 48 | 355 | 4.0 | 7.0 | 0.00 | 0.00 | 0.00 | 68 | 1018.0 |
| 20260503020804 | 48 | 321 | 4.0 | 7.0 | 0.00 | 0.00 | 0.00 | 68 | 1018.0 |
| 20260503020304 | 47 | 342 | 6.0 | 8.0 | 0.00 | 0.00 | 0.00 | 69 | 1018.0 |
| 20260503015803 | 47 | 316 | 5.0 | 9.0 | 0.00 | 0.00 | 0.00 | 69 | 1018.1 |
| 20260503015305 | 47 | 337 | 7.0 | 9.0 | 0.00 | 0.00 | 0.00 | 69 | 1018.0 |
| 20260503014803 | 47 | 324 | 5.0 | 9.0 | 0.00 | 0.00 | 0.00 | 69 | 1018.0 |
| 20260503014304 | 47 | 328 | 7.0 | 10.0 | 0.00 | 0.00 | 0.00 | 69 | 1018.0 |
| 20260503013804 | 47 | 348 | 6.0 | 12.0 | 0.00 | 0.00 | 0.00 | 69 | 1018.0 |
| 20260503013304 | 47 | 336 | 6.0 | 12.0 | 0.00 | 0.00 | 0.00 | 69 | 1017.9 |
| 20260503012804 | 47 | 335 | 5.0 | 9.0 | 0.00 | 0.00 | 0.00 | 69 | 1017.8 |
| 20260503012305 | 47 | 338 | 6.0 | 10.0 | 0.00 | 0.00 | 0.00 | 69 | 1018.0 |
| 20260503011804 | 47 | 330 | 6.0 | 10.0 | 0.00 | 0.00 | 0.00 | 68 | 1018.0 |
| 20260503011304 | 48 | 344 | 6.0 | 12.0 | 0.00 | 0.00 | 0.00 | 68 | 1017.8 |
| 20260503010804 | 48 | 337 | 8.0 | 12.0 | 0.00 | 0.00 | 0.00 | 69 | 1017.8 |
| 20260503010304 | 48 | 334 | 6.0 | 13.0 | 0.00 | 0.00 | 0.00 | 69 | 1017.8 |
| 20260503005804 | 48 | 344 | 8.0 | 13.0 | 0.00 | 0.00 | 0.00 | 69 | 1017.8 |
| 20260503005304 | 47 | 318 | 6.0 | 12.0 | 0.00 | 0.00 | 0.00 | 69 | 1017.9 |
| 20260503004804 | 47 | 321 | 3.0 | 12.0 | 0.00 | 0.00 | 0.00 | 69 | 1017.8 |
| 20260503004304 | 47 | 331 | 8.0 | 13.0 | 0.00 | 0.00 | 0.00 | 70 | 1017.8 |
| 20260503003804 | 47 | 341 | 9.0 | 15.0 | 0.00 | 0.00 | 0.00 | 69 | 1017.6 |
| 20260503003304 | 47 | 342 | 9.0 | 12.0 | 0.00 | 0.00 | 0.00 | 68 | 1017.7 |
| 20260503002804 | 47 | 339 | 6.0 | 10.0 | 0.00 | 0.00 | 0.00 | 67 | 1017.6 |
| 20260503002305 | 47 | 336 | 5.0 | 9.0 | 0.00 | 0.00 | 0.00 | 67 | 1017.6 |
| 20260503001804 | 47 | 321 | 5.0 | 9.0 | 0.00 | 0.00 | 0.00 | 67 | 1017.5 |
| 20260503001304 | 47 | 349 | 8.0 | 14.0 | 0.00 | 0.00 | 0.00 | 67 | 1017.5 |
| 20260503000804 | 48 | 14 | 7.0 | 13.0 | 0.00 | 0.00 | 0.00 | 66 | 1017.5 |
| 20260503000304 | 48 | 357 | 7.0 | 10.0 | 0.00 | 0.00 | 0.00 | 64 | 1017.5 |
| 20260502235804 | 48 | 322 | 6.0 | 10.0 | 0.00 | 0.00 | 0.00 | 64 | 1017.6 |
| 20260502235305 | 48 | 351 | 8.0 | 12.0 | 0.00 | 0.00 | 0.00 | 63 | 1017.5 |
| 20260502234804 | 49 | 5 | 7.0 | 13.0 | 0.00 | 0.00 | 0.00 | 59 | 1017.4 |
| 20260502234304 | 50 | 349 | 7.0 | 9.0 | 0.00 | 0.00 | 0.00 | 55 | 1017.4 |
| 20260502233804 | 51 | 337 | 3.0 | 9.0 | 0.00 | 0.00 | 0.00 | 52 | 1017.3 |
| 20260502233304 | 51 | 170 | 4.0 | 13.0 | 0.00 | 0.00 | 0.00 | 48 | 1017.3 |
| 20260502232804 | 51 | 120 | 6.0 | 13.0 | 0.00 | 0.00 | 0.00 | 48 | 1017.2 |
| 20260502232305 | 51 | 158 | 8.0 | 13.0 | 0.00 | 0.00 | 0.00 | 48 | 1017.1 |